{"data":{"norad_id":62207,"intl_designator":"2024-229R","name":"STARLINK-32430","alt_names":[],"object_type":"PAYLOAD","status":"ACTIVE","operator":null,"country":"US","launch_date":"2024-12-04","launch_site_code":"AFETR","launch_vehicle":null,"mission":null,"orbit_class":"UNKNOWN","rcs_meters":null,"size_class":null,"mass_kg":null,"dimensions":null,"purposes":["comms"],"wikipedia_slug":null,"has_3d_model":false,"image_url":null,"decayed_at":null,"tle_current":{"epoch":"2026-09-21T22:36:38.447424Z","epoch_age_seconds":53048,"freshness":"FRESH","line1":"1 62207U 24229R   26264.94211166  .00010930  00000+0  40591-3 0  9990","line2":"2 62207  43.0001 239.1017 0001441 266.9319  93.1367 15.27597686100619","mean_motion":15.27597686,"eccentricity":0.0001441,"inclination_deg":43.0001,"raan_deg":239.1017,"arg_perigee_deg":266.9319,"mean_anomaly_deg":93.1367,"bstar":0.00040591,"rev_number":10061,"period_min":94.265657325695,"perigee_km":482.00744901886,"apogee_km":483.98482758932,"semimajor_km":6861.1331383041,"source":"CELESTRAK","updated_at":"2026-09-22T09:00:49.542076Z"}}}